Stations météo

réclame
Mon MeteoGroup
Monte Terminillo, Italie (16219): Température de l'air & dewpoint: 17.05.2018 22:00:00 - 23.05.2018 22:00:00 (CEST)Monte Terminillo, Italie (16219): Vitesse du vent: 17.05.2018 22:00:00 - 23.05.2018 22:00:00 (CEST)Monte Terminillo, Italie (16219): Direction du vent: 17.05.2018 22:00:00 - 23.05.2018 22:00:00 (CEST)
Date & Time tt [°C] td [°C] ff [km/h] ff [knt] dd
23.05.2018 22:00:00 0,0 0,0 0 0 N
23.05.2018 21:00:00 0,0 0,0 0 0 N
23.05.2018 20:00:00 0,0 0,0 0 0 N
23.05.2018 19:00:00 0,0 0,0 0 0 N
23.05.2018 18:00:00 0,0 0,0 0 0 N
23.05.2018 17:00:00 0,0 0,0 0 0 N
23.05.2018 16:00:00 0,0 0,0 0 0 N
23.05.2018 15:00:00 0,0 0,0 0 0 N
23.05.2018 14:00:00 0,0 0,0 0 0 N
23.05.2018 13:00:00 0,0 0,0 0 0 N
23.05.2018 12:00:00 0,0 0,0 0 0 N
23.05.2018 11:00:00 0,0 0,0 0 0 N
23.05.2018 10:00:00 0,0 0,0 0 0 N
23.05.2018 09:00:00 0,0 0,0 0 0 N
23.05.2018 08:00:00 0,0 0,0 0 0 N
23.05.2018 07:00:00 0,0 0,0 0 0 N
23.05.2018 06:00:00 0,0 0,0 0 0 N
23.05.2018 05:00:00 0,0 0,0 0 0 N
23.05.2018 04:00:00 0,0 0,0 0 0 N
23.05.2018 03:00:00 0,0 0,0 0 0 N
23.05.2018 02:00:00 0,0 0,0 0 0 N
23.05.2018 01:00:00 0,0 0,0 0 0 N
23.05.2018 00:00:00 0,0 0,0 0 0 N
22.05.2018 23:00:00 0,0 0,0 0 0 N
22.05.2018 22:00:00 0,0 0,0 0 0 N
22.05.2018 21:00:00 0,0 0,0 0 0 N
22.05.2018 20:00:00 0,0 0,0 0 0 N
22.05.2018 19:00:00 0,0 0,0 0 0 N
22.05.2018 18:00:00 0,0 0,0 0 0 N
22.05.2018 17:00:00 0,0 0,0 0 0 N
22.05.2018 16:00:00 0,0 0,0 0 0 N
22.05.2018 15:00:00 0,0 0,0 0 0 N
22.05.2018 14:00:00 0,0 0,0 0 0 N
22.05.2018 13:00:00 0,0 0,0 0 0 N
22.05.2018 12:00:00 0,0 0,0 0 0 N
22.05.2018 11:00:00 0,0 0,0 0 0 N
22.05.2018 10:00:00 0,0 0,0 0 0 N
22.05.2018 09:00:00 0,0 0,0 0 0 N
22.05.2018 08:00:00 0,0 0,0 0 0 N
22.05.2018 07:00:00 0,0 0,0 0 0 N
22.05.2018 06:00:00 0,0 0,0 0 0 N
22.05.2018 05:00:00 0,0 0,0 0 0 N
22.05.2018 04:00:00 0,0 0,0 0 0 N
22.05.2018 03:00:00 0,0 0,0 0 0 N
22.05.2018 02:00:00 0,0 0,0 0 0 N
22.05.2018 01:00:00 0,0 0,0 0 0 N
22.05.2018 00:00:00 0,0 0,0 0 0 N
21.05.2018 23:00:00 0,0 0,0 0 0 N
21.05.2018 22:00:00 0,0 0,0 0 0 N
21.05.2018 21:00:00 0,0 0,0 0 0 N
21.05.2018 20:00:00 0,0 0,0 0 0 N
21.05.2018 19:00:00 0,0 0,0 0 0 N
21.05.2018 18:00:00 0,0 0,0 0 0 N
21.05.2018 17:00:00 0,0 -1,0 0 0 N
21.05.2018 16:00:00 0,0 -1,3 0 0 N
21.05.2018 15:00:00 0,0 -0,3 0 0 N
21.05.2018 14:00:00 0,0 0,0 0 0 N
21.05.2018 13:00:00 0,0 -3,7 0 0 N
21.05.2018 12:00:00 0,0 -3,9 0 0 N
21.05.2018 11:00:00 0,0 -5,0 0 0 N
21.05.2018 10:00:00 0,0 -3,7 0 0 N
21.05.2018 09:00:00 0,0 -3,5 0 0 N
21.05.2018 08:00:00 0,0 -3,7 0 0 N
21.05.2018 07:00:00 0,0 -3,5 0 0 N
21.05.2018 06:00:00 0,0 -2,9 0 0 N
21.05.2018 05:00:00 0,0 -2,5 0 0 N
21.05.2018 04:00:00 0,0 -4,1 0 0 N
21.05.2018 03:00:00 0,0 -4,1 0 0 N
21.05.2018 02:00:00 0,0 -3,7 0 0 N
21.05.2018 01:00:00 0,0 -3,0 0 0 N
21.05.2018 00:00:00 0,0 -2,9 0 0 N
20.05.2018 23:00:00 0,0 -2,7 0 0 N
20.05.2018 22:00:00 0,0 -1,6 0 0 N
20.05.2018 21:00:00 0,0 -0,1 0 0 N
20.05.2018 20:00:00 0,0 -2,0 0 0 N
20.05.2018 19:00:00 0,0 0,0 0 0 N
20.05.2018 18:00:00 0,0 -2,0 0 0 N
20.05.2018 17:00:00 0,0 -3,9 0 0 N
20.05.2018 16:00:00 0,0 -4,4 0 0 N
20.05.2018 15:00:00 0,0 -5,0 0 0 N
20.05.2018 14:00:00 0,0 -5,8 0 0 N
20.05.2018 13:00:00 0,0 -3,9 0 0 N
20.05.2018 12:00:00 0,0 -1,7 0 0 N
20.05.2018 11:00:00 0,0 -1,0 0 0 N
20.05.2018 10:00:00 0,0 -1,9 0 0 N
20.05.2018 09:00:00 0,0 -0,3 0 0 N
20.05.2018 08:00:00 0,0 -2,5 0 0 N
20.05.2018 07:00:00 0,0 -0,1 0 0 N
20.05.2018 06:00:00 0,0 0,0 0 0 N
20.05.2018 05:00:00 0,0 0,0 0 0 N
20.05.2018 04:00:00 0,0 0,0 0 0 N
20.05.2018 03:00:00 0,0 0,0 0 0 N
20.05.2018 02:00:00 0,0 0,0 0 0 N
20.05.2018 01:00:00 0,0 0,0 0 0 N
20.05.2018 00:00:00 0,0 0,0 0 0 N
19.05.2018 23:00:00 0,0 0,0 0 0 N
19.05.2018 22:00:00 0,0 0,0 0 0 N
19.05.2018 21:00:00 0,0 -1,0 0 0 N
19.05.2018 20:00:00 0,0 -2,4 0 0 N
19.05.2018 19:00:00 0,0 -0,4 0 0 N
19.05.2018 18:00:00 0,0 -1,4 0 0 N
19.05.2018 17:00:00 0,0 -1,3 0 0 N
19.05.2018 16:00:00 0,0 -3,4 0 0 N
19.05.2018 15:00:00 0,0 -4,1 0 0 N
19.05.2018 14:00:00 0,0 -3,2 0 0 N
19.05.2018 13:00:00 0,0 -5,0 0 0 N
19.05.2018 12:00:00 0,0 -6,0 0 0 N
19.05.2018 11:00:00 0,0 -5,6 0 0 N
19.05.2018 10:00:00 0,0 -4,2 0 0 N
19.05.2018 09:00:00 0,0 -4,6 0 0 N
19.05.2018 08:00:00 0,0 -3,9 0 0 N
19.05.2018 07:00:00 0,0 -4,1 0 0 N
19.05.2018 06:00:00 0,0 -1,9 0 0 N
19.05.2018 05:00:00 0,0 -1,3 0 0 N
19.05.2018 04:00:00 0,0 -1,4 0 0 N
19.05.2018 03:00:00 0,0 -1,6 0 0 N
19.05.2018 02:00:00 0,0 -1,4 0 0 N
19.05.2018 01:00:00 0,0 -2,0 0 0 N
19.05.2018 00:00:00 0,0 -2,5 0 0 N
18.05.2018 23:00:00 0,0 -0,7 0 0 N
18.05.2018 22:00:00 0,0 -1,7 0 0 N
18.05.2018 21:00:00 0,0 -0,1 0 0 N
18.05.2018 20:00:00 0,0 0,0 0 0 N
18.05.2018 19:00:00 0,0 0,0 0 0 N
18.05.2018 18:00:00 0,0 0,0 0 0 N
18.05.2018 17:00:00 0,0 -0,7 0 0 N
18.05.2018 16:00:00 0,0 -1,1 0 0 N
18.05.2018 15:00:00 0,0 -3,0 0 0 N
18.05.2018 14:00:00 0,0 -7,5 0 0 N
18.05.2018 13:00:00 0,0 -3,2 0 0 N
18.05.2018 12:00:00 0,0 -0,1 0 0 N
18.05.2018 11:00:00 0,0 -1,1 0 0 N
18.05.2018 10:00:00 0,0 0,0 0 0 N
18.05.2018 09:00:00 0,0 0,0 0 0 N
18.05.2018 08:00:00 0,0 -0,8 0 0 N
18.05.2018 07:00:00 0,0 -0,8 0 0 N
18.05.2018 06:00:00 0,0 0,0 0 0 N
18.05.2018 05:00:00 0,0 0,0 0 0 N
18.05.2018 04:00:00 0,0 0,0 0 0 N
18.05.2018 03:00:00 0,0 0,0 0 0 N
18.05.2018 02:00:00 0,0 -0,4 0 0 N
18.05.2018 01:00:00 0,0 0,0 0 0 N
18.05.2018 00:00:00 0,0 0,0 0 0 N
17.05.2018 23:00:00 0,0 0,0 0 0 N
17.05.2018 22:00:00 0,0 0,0 0 0 N

tt = Température de l'air
td = dewpoint
ff = Vitesse du vent
dd = Direction du vent

stations d'obs. à proximité